Francistown, Botswana

3:22 PM CAT on July 23, 2017 (GMT +0200)
Francistown

Weather History for FBFT - June, 2013

Change the Weather History Date:

Tuesday, June 25, 2013

  Actual Average Record
Temperature  
Mean Temperature 59 °F -  
Max Temperature 78 °F 72 °F 84 °F (1999)
Min Temperature 40 °F 41 °F 26 °F (2011)
Degree Days  
Heating Degree Days 6    
Growing Degree Days 9 (Base 50)    
Moisture  
Dew Point 43 °F    
Average Humidity 56    
Maximum Humidity 82    
Minimum Humidity 30    
Precipitation  
Precipitation 0.00 in - - ()
Sea Level Pressure  
Sea Level Pressure 30.16 in    
Wind  
Wind Speed 3 mph ()    
Max Wind Speed 9 mph    
Max Gust Speed -    
Visibility 6.0 miles    
Events      
Averages and records for this station are not official NWS values.
T = Trace of Precipitation, MM = Missing Value Source: Averaged Metar Reports

Daily Weather History Graph

Daily Weather History Graph

Search for Another Location

Airport or City:

Trip Planner

Search our weather history database for the weather conditions in past years. The results will help you decide how hot, cold, wet, or windy it might be!

Date:

Astronomy

Jun. 25, 2013 Rise Set
Actual Time 6:47 AM CAT 5:38 PM CAT
Civil Twilight 6:23 AM CAT 6:02 PM CAT
Nautical Twilight 5:55 AM CAT 6:29 PM CAT
Astronomical Twilight 5:28 AM CAT 6:57 PM CAT
Moon 8:03 PM CAT (6/25) 8:21 AM CAT (6/25)
Length of Visible Light 11h 39m
Length of Day
10h 50m
Waning Gibbous, 94% of the Moon is Illuminated
Jun 25
Waning Gibbous
Jun 30
Last Quarter
Jul 8
New
Jul 16
First Quarter
Jul 22
Full

Hourly Weather History & Observations

Time (CAT) Temp. Windchill Dew Point Humidity Pressure Visibility Wind Dir Wind Speed Gust Speed Precip Events Conditions
12:00 AM 51.8 °F - 42.8 °F 71% 30.21 in - East 4.6 mph - N/A   Clear
1:00 AM 48.2 °F - 41.0 °F 76% 30.18 in - SSE 4.6 mph - N/A   Clear
2:00 AM 49 °F - 43 °F 72%  in 6 mi SSE 1.2 mph - -  
3:00 AM 48.2 °F - 42.8 °F 82% 30.18 in - Variable 2.3 mph - N/A   Clear
4:00 AM 44.6 °F - 39.2 °F 81% 30.18 in - Variable 1.2 mph - N/A   Clear
5:00 AM 41.0 °F - 33.8 °F 76% 30.18 in - Variable 2.3 mph - N/A   Clear
6:00 AM 41.0 °F - 35.6 °F 81% 30.18 in - Variable 1.2 mph - N/A   Clear
7:00 AM 41.0 °F 36.4 °F 33.8 °F 76% 30.21 in - North 6.9 mph - N/A   Clear
8:00 AM 46 °F - 38 °F 65%  in 6 mi NNE 1.2 mph - -  
8:00 AM 46.4 °F - 37.4 °F 71% 30.21 in - Variable 1.2 mph - N/A   Clear
9:00 AM 59.0 °F - 44.6 °F 59% 30.24 in - NNW 1.2 mph - N/A   Clear
10:00 AM 69.8 °F - 48.2 °F 46% 30.24 in - NNW 6.9 mph - N/A   Clear
11:00 AM 73.4 °F - 48.2 °F 41% 30.21 in - NNW 6.9 mph - N/A   Clear
12:00 PM 75.2 °F - 48.2 °F 38% 30.18 in - WSW 9.2 mph - N/A   Clear
1:00 PM 77.0 °F - 46.4 °F 34% 30.15 in - NW 5.8 mph - N/A   Clear
2:00 PM 78.8 °F - 46.4 °F 32% 30.12 in - NE 4.6 mph - N/A   Clear
3:00 PM 77.0 °F - 44.6 °F 32% 30.09 in - NW 8.1 mph - N/A   Clear
4:00 PM 78.8 °F - 44.6 °F 30% 30.09 in - NW 8.1 mph - N/A   Clear
5:00 PM 77.0 °F - 48.2 °F 36% 30.09 in - NNE 1.2 mph - N/A   Clear
6:00 PM 71.6 °F - 46.4 °F 41% 30.09 in - WNW 3.5 mph - N/A   Clear
7:00 PM 68.0 °F - 44.6 °F 43% 30.12 in - NNW 4.6 mph - N/A   Clear
8:00 PM 64.4 °F - 42.8 °F 45% 30.12 in - WNW 6.9 mph - N/A   Clear
9:00 PM 64.4 °F - 42.8 °F 45% 30.12 in - WNW 4.6 mph - N/A   Clear
10:00 PM 59.0 °F - 39.2 °F 48% 30.12 in - Calm Calm - N/A   Clear
11:00 PM 55.4 °F - 44.6 °F 67% 30.15 in - WSW 4.6 mph - N/A   Clear